[[{"header":{"parameterUnit":"m.s-1","parameterCategory":1,"la1":30.2992,"la2":30.254,"lo1":-89.0895,"lo2":-89.0443,"dy":0.0025,"dx":0.0025,"nx":19,"ny":19,"refTime":"2026-03-28T09:00:00:Z","depth":0,"parameterNumber":2,"parameterNumberName":"U-component_of_WINDS"},"data":[0,0,0,2.8059,2.8061,2.8124,2.8124,2.8226,2.8227,0,0,0,0,0,0,0,0,0,0,0,2.8054,2.8055,2.8059,2.8061,2.8124,2.8124,2.8225,2.8227,0,0,0,0,0,0,0,0,0,0,0,2.8053,2.8054,2.8056,2.8062,2.8124,2.8124,2.8225,2.817,0,0,0,0,0,0,0,0,0,0,2.8105,2.8113,2.8054,2.8056,2.8062,2.8124,2.8124,2.8167,2.8174,2.8206,0,2.8239,0,2.8235,2.8235,2.8235,0,0,0,2.8051,2.8107,2.8113,2.8056,2.8063,2.8124,2.8093,2.817,2.8178,2.8215,2.824,2.8243,2.8236,2.8236,2.8236,2.846,2.8461,0,0,2.8048,2.8072,2.8108,2.8118,2.811,2.8091,2.8095,2.8175,2.8203,2.824,2.8245,2.8238,2.8236,2.8237,2.8458,2.846,0,0,0,2.8045,2.807,2.8073,2.8115,2.8125,2.8093,2.8098,2.82,2.8199,2.8246,2.8239,2.8237,2.8239,2.8457,2.8459,2.8557,0,0,0,2.8042,2.8068,2.8072,2.8087,2.8124,2.8163,2.8122,2.8193,2.8202,2.8239,2.8237,2.824,2.8455,2.8458,2.8551,2.8599,0,0,0,2.8045,2.8068,2.8081,2.8088,2.8116,2.8161,2.8164,2.8195,2.8198,2.8235,2.824,2.8454,2.8457,2.8545,2.859,2.8665,0,0,0,2.8055,2.8166,2.8083,2.8205,2.8116,2.8222,2.8164,2.8241,2.8285,2.8238,2.8455,2.8459,2.8543,2.8584,2.866,2.8733,2.8766,0,0,2.8209,2.8186,2.8256,2.8183,2.831,2.821,2.8352,2.8368,2.835,2.8424,2.8429,2.8553,2.8589,2.8664,2.8943,2.897,0,0,0,2.8312,2.8363,2.8392,2.8435,2.8452,2.8471,2.8464,2.8471,2.8533,2.8393,2.86,2.8621,2.8664,2.8698,2.872,2.8756,2.8475,2.8475,2.8475,2.8563,2.8535,2.8649,2.863,2.8673,2.8666,2.8699,2.8706,2.8663,2.8713,2.8735,2.8908,2.8949,2.8966,2.9003,2.8772,2.8772,2.8772,2.8773,2.8785,2.8853,2.8797,2.8887,2.8857,2.8933,2.8932,2.89,2.8966,2.8889,2.8925,2.8843,2.8996,2.9027,2.878,2.8779,2.8778,2.8777,2.8776,2.8946,2.8973,2.8981,2.9043,2.9094,2.907,2.9138,2.9107,2.9079,2.9115,2.9135,2.9134,2.9128,2.9127,2.9128,2.9128,2.9129,2.9129,2.913,2.9109,2.9115,2.9175,2.9205,2.923,2.926,2.9256,2.928,2.9299,2.9272,2.9272,2.9225,2.9016,2.8964,2.9139,2.9137,2.9136,2.9135,2.9135,2.9344,2.9287,2.938,2.9406,2.944,2.9494,2.9455,2.9507,2.9523,2.9557,2.9504,2.9354,2.9328,2.931,2.9266,2.9509,2.9509,2.9509,2.9509,2.9479,2.9464,2.9554,2.9598,2.9637,2.9613,2.9721,2.972,2.971,2.9718,2.9679,2.9619,2.9602,2.9586,2.9562,2.9521,2.9823,2.9823,2.9824,2.9622,2.961,2.9707,2.9698,2.9723,2.9745,2.9846,2.9898,2.9875,2.9836,2.9724,2.9711,2.9614,2.9584,2.9541,2.9504,2.9428,0,0]},{"header":{"parameterUnit":"m.s-1","parameterCategory":1,"la1":30.2992,"la2":30.254,"lo1":-89.0895,"lo2":-89.0443,"dy":0.0025,"dx":0.0025,"nx":19,"ny":19,"refTime":"2026-03-28T09:00:00:Z","depth":0,"parameterNumber":3,"parameterNumberName":"V-component_of_WINDS"},"data":[0,0,0,2.225,2.2255,2.2494,2.2495,2.2799,2.2802,0,0,0,0,0,0,0,0,0,0,0,2.2179,2.2181,2.225,2.2256,2.2494,2.2495,2.2799,2.2802,0,0,0,0,0,0,0,0,0,0,0,2.2178,2.218,2.2183,2.2257,2.2494,2.2495,2.2798,2.2618,0,0,0,0,0,0,0,0,0,0,2.2387,2.232,2.218,2.2183,2.2258,2.2494,2.2495,2.261,2.2629,2.269,0,2.2745,0,2.2778,2.2822,2.2823,0,0,0,2.2256,2.2304,2.2369,2.2183,2.226,2.2493,2.2387,2.2621,2.2643,2.2717,2.2749,2.276,2.2783,2.2824,2.2825,2.3176,2.3177,0,0,2.2243,2.2222,2.2353,2.2383,2.2346,2.2379,2.2394,2.2634,2.2668,2.275,2.2767,2.2788,2.2826,2.2828,2.3174,2.3176,0,0,0,2.2205,2.2212,2.2271,2.2371,2.2414,2.2386,2.2403,2.2657,2.2678,2.2771,2.2792,2.2828,2.2831,2.3173,2.3175,2.3235,0,0,0,2.2197,2.219,2.2265,2.2255,2.2409,2.2539,2.2421,2.2662,2.2689,2.279,2.2828,2.2834,2.3171,2.3174,2.323,2.3268,0,0,0,2.2163,2.2186,2.2221,2.2253,2.2355,2.2535,2.257,2.2668,2.2702,2.2823,2.2835,2.317,2.3173,2.3225,2.326,2.3355,0,0,0,2.2122,2.227,2.2221,2.2395,2.2353,2.257,2.2569,2.2732,2.2842,2.2829,2.3171,2.3175,2.3223,2.3255,2.3349,2.3431,2.3463,0,0,2.2297,2.2291,2.2395,2.2358,2.2578,2.2535,2.2765,2.2887,2.2917,2.3088,2.3097,2.3232,2.3259,2.3353,2.3647,2.3672,0,0,0,2.2443,2.2518,2.2581,2.2685,2.2781,2.2867,2.2956,2.3,2.3146,2.3001,2.3291,2.3308,2.3364,2.3405,2.3426,2.3476,2.3192,2.3192,2.3191,2.2662,2.2693,2.2868,2.2928,2.3029,2.3118,2.3203,2.3279,2.3281,2.3349,2.34,2.3574,2.3621,2.3637,2.3689,2.3445,2.3445,2.3445,2.3445,2.2923,2.3034,2.3033,2.3201,2.3233,2.3375,2.3467,2.3463,2.36,2.3538,2.3589,2.3521,2.3664,2.371,2.345,2.3449,2.3449,2.3448,2.3448,2.3071,2.313,2.3182,2.3336,2.3451,2.3506,2.3638,2.3662,2.3685,2.3735,2.3793,2.3792,2.3795,2.376,2.3761,2.3762,2.3762,2.3763,2.3763,2.3205,2.3262,2.337,2.3484,2.3554,2.3649,2.374,2.381,2.3893,2.39,2.3901,2.3896,2.3671,2.3615,2.3773,2.3771,2.377,2.3769,2.3768,2.3461,2.3407,2.3574,2.3644,2.378,2.3893,2.3921,2.4061,2.4122,2.4186,2.417,2.4,2.3995,2.3978,2.3932,2.4162,2.4162,2.4162,2.4162,2.3587,2.3586,2.3763,2.3874,2.3985,2.4027,2.4215,2.4287,2.4352,2.4391,2.4361,2.4301,2.4283,2.4289,2.4265,2.4223,2.4522,2.4523,2.4523,2.3747,2.3758,2.3914,2.3977,2.4085,2.4177,2.4354,2.4482,2.4544,2.4538,2.4423,2.4408,2.4311,2.4278,2.4271,2.4234,2.4157,0,0]}]]